,

(GMT )
Grand Etang

Weather History for CWZQ - October, 2012

Change the Weather History Date:

Friday, October 12, 2012

  Actual Average Record
Temperature  
Mean Temperature 50 °F -  
Max Temperature 56 °F - - ()
Min Temperature 43 °F - - ()
Degree Days  
Heating Degree Days 15    
Moisture  
Dew Point 40 °F    
Average Humidity 73    
Maximum Humidity 91    
Minimum Humidity 54    
Precipitation  
Precipitation 0.00 in - - ()
Sea Level Pressure  
Sea Level Pressure 29.90 in    
Wind  
Wind Speed 22 mph ()    
Max Wind Speed 34 mph    
Max Gust Speed 44 mph    
T = Trace of Precipitation, MM = Missing Value Source: Averaged Metar Reports

Daily Weather History Graph

Daily Weather History Graph

Search for Another Location

Airport or City:

Trip Planner

Search our weather history database for the weather conditions in past years. The results will help you decide how hot, cold, wet, or windy it might be!

Date:

Astronomy

Oct. 12, 2012 Rise Set
Actual Time 7:18 AM ADT 6:22 PM ADT
Civil Twilight 6:47 AM ADT 6:52 PM ADT
Nautical Twilight 6:12 AM ADT 7:27 PM ADT
Astronomical Twilight 5:37 AM ADT 8:02 PM ADT
Moon 3:45 AM ADT (10/12) 4:37 PM ADT (10/12)
Length of Visible Light 12h 04m
Length of Day
11h 03m
Waning Crescent, 11% of the Moon is Illuminated
Oct 12
Waning Crescent
Oct 15
New
Oct 22
First Quarter
Oct 29
Full
Nov 6
Last Quarter

Hourly Weather History & Observations

Time (ADT) Temp. Windchill Dew Point Humidity Pressure Visibility Wind Dir Wind Speed Gust Speed Precip Events Conditions
1:20 AM 49.8 °F - 36.9 °F 61% - - West 33.4 mph 43.7 mph N/A   Unknown
1:40 AM 49.8 °F - 38.5 °F 65% - - West 32.2 mph 42.6 mph N/A   Unknown
2:00 AM 49.8 °F - 38.5 °F 65% 29.95 in - West 34.5 mph 43.7 mph N/A   Unknown
3:00 AM 48.9 °F - 38.5 °F 67% 29.97 in - WSW 33.4 mph - N/A   Unknown
3:20 AM 49.1 °F - 38.7 °F 67% - - WSW 28.8 mph 39.1 mph N/A   Unknown
3:40 AM 48.7 °F - 38.5 °F 68% - - WSW 29.9 mph 36.8 mph N/A   Unknown
4:00 AM 48.2 °F - 37.4 °F 66% 29.98 in - WSW 31.1 mph 38.0 mph N/A   Unknown
4:20 AM 48.6 °F - 39.0 °F 70% - - WSW 26.5 mph 35.7 mph N/A   Unknown
4:40 AM 48.6 °F - 38.1 °F 67% - - WSW 27.6 mph 33.4 mph N/A   Unknown
5:00 AM 48.2 °F - 37.9 °F 68% 29.98 in - WSW 28.8 mph - N/A   Unknown
5:20 AM 48.4 °F - 38.5 °F 69% - - WSW 25.3 mph 32.2 mph N/A   Unknown
5:40 AM 48.2 °F - 38.1 °F 68% - - WSW 24.2 mph 29.9 mph N/A   Unknown
6:00 AM 48.4 °F - 37.9 °F 67% 29.99 in - WSW 26.5 mph 35.7 mph N/A   Unknown
6:20 AM 48.2 °F - 36.9 °F 65% - - WSW 23.0 mph 31.1 mph N/A   Unknown
6:40 AM 48.2 °F - 37.8 °F 67% - - WSW 21.9 mph 28.8 mph N/A   Unknown
7:00 AM 48.2 °F - 38.3 °F 69% 29.98 in - WSW 26.5 mph - N/A   Unknown
7:20 AM 48.2 °F - 38.3 °F 69% - - WSW 19.6 mph 28.8 mph N/A   Unknown
7:40 AM 48.2 °F - 37.6 °F 67% - - WSW 19.6 mph 26.5 mph N/A   Unknown
8:00 AM 48.7 °F - 36.7 °F 63% 29.98 in - WSW 20.7 mph - N/A   Unknown
8:20 AM 49.1 °F - 36.0 °F 61% - - WSW 19.6 mph - N/A   Unknown
8:40 AM 49.1 °F - 36.7 °F 62% - - WSW 19.6 mph 25.3 mph N/A   Unknown
9:00 AM 50.0 °F - 37.9 °F 63% 29.96 in - SW 19.6 mph - N/A   Unknown
9:20 AM 50.4 °F - 39.9 °F 67% - - SW 16.1 mph - N/A   Unknown
9:40 AM 50.5 °F - 36.5 °F 59% - - South 13.8 mph 19.6 mph N/A   Unknown
10:00 AM 48.7 °F - 36.5 °F 63% 29.96 in - South 17.3 mph - N/A   Unknown
10:20 AM 48.7 °F - 34.9 °F 59% - - South 15.0 mph 24.2 mph N/A   Unknown
10:40 AM 48.9 °F - 33.1 °F 54% - - South 15.0 mph 23.0 mph N/A   Unknown
11:00 AM 49.8 °F - 35.4 °F 58% 29.93 in - South 16.1 mph 23.0 mph N/A   Unknown
11:40 AM 49.1 °F - 38.8 °F 68% - - South 19.6 mph 26.5 mph N/A   Unknown
12:00 PM 50.2 °F - 40.3 °F 69% 29.90 in - South 19.6 mph 27.6 mph N/A   Unknown
12:20 PM 50.0 °F - 40.8 °F 71% - - South 19.6 mph 26.5 mph N/A   Unknown
12:40 PM 51.4 °F - 41.7 °F 69% - - South 18.4 mph 29.9 mph N/A   Unknown
1:20 PM 52.0 °F - 42.8 °F 71% - - South 16.1 mph 25.3 mph N/A   Unknown
1:40 PM 53.1 °F - 43.5 °F 70% - - South 16.1 mph 24.2 mph N/A   Unknown
2:00 PM 53.6 °F - 44.1 °F 70% 29.83 in - South 16.1 mph - N/A   Unknown
2:20 PM 56.1 °F - 45.3 °F 67% - - South 12.7 mph 21.9 mph N/A   Unknown
2:40 PM 55.6 °F - 44.6 °F 67% - - South 12.7 mph 21.9 mph N/A   Unknown
3:40 PM 54.5 °F - 46.8 °F 75% - - South 11.5 mph - N/A   Unknown
4:00 PM 54.9 °F - 47.3 °F 76% 29.75 in - South 16.1 mph 27.6 mph N/A   Unknown
4:20 PM 51.8 °F - 47.5 °F 85% - - West 21.9 mph 34.5 mph N/A   Unknown
4:40 PM 48.9 °F - 46.4 °F 91% - - WNW 32.2 mph - N/A   Unknown
5:00 PM 48.6 °F - 45.1 °F 88% 29.80 in - WNW 32.2 mph - N/A   Unknown
5:20 PM 48.4 °F - 45.0 °F 88% - - NW 19.6 mph - N/A   Unknown
5:40 PM 47.7 °F - 44.2 °F 88% - - WNW 18.4 mph - N/A   Unknown
6:20 PM 47.3 °F - 43.9 °F 88% - - NW 16.1 mph 23.0 mph N/A   Unknown
6:40 PM 46.9 °F - 43.2 °F 87% - - NW 16.1 mph - N/A   Unknown
7:00 PM 47.3 °F - 43.9 °F 88% 29.83 in - WNW 17.3 mph - N/A   Unknown
7:20 PM 46.8 °F - 43.5 °F 88% - - NW 16.1 mph - N/A   Unknown
7:40 PM 45.7 °F 37.6 °F 42.4 °F 88% - - NW 21.9 mph - N/A   Unknown
8:00 PM 45.3 °F 37.1 °F 41.7 °F 87% 29.83 in - NW 21.9 mph - N/A   Unknown
8:20 PM 44.8 °F 36.6 °F 40.8 °F 86% - - WNW 20.7 mph - N/A   Unknown
8:40 PM 44.4 °F 37.5 °F 40.5 °F 86% - - NW 15.0 mph - N/A   Unknown
9:00 PM 44.8 °F 36.6 °F 41.0 °F 87% 29.83 in - NW 20.7 mph - N/A   Unknown
9:20 PM 44.6 °F 37.2 °F 41.0 °F 87% - - WNW 17.3 mph - N/A   Unknown
9:40 PM 44.6 °F 37.4 °F 41.0 °F 87% - - NW 16.1 mph - N/A   Unknown
10:00 PM 44.6 °F 36.4 °F 40.6 °F 86% 29.83 in - NW 20.7 mph - N/A   Unknown
10:20 PM 44.8 °F 36.6 °F 40.8 °F 86% - - NW 20.7 mph 31.1 mph N/A   Unknown
11:00 PM 44.8 °F 35.7 °F 41.0 °F 87% 29.84 in - NNW 25.3 mph 35.7 mph N/A   Unknown
11:40 PM 43.5 °F 34.3 °F 39.4 °F 85% - - NNW 24.2 mph - N/A   Unknown